DL7MAP-13 Weather Reports


Display with metric or nautical units.
time (UTC)temp
F
wind
direction
speed
MPH
gust
MPH
rain 1hr
in
rain 24hr
in
rain mn
in
humidity
%
barometer
mb
20260906094715 65 0.0 0.0 0.00 0.00 0.00 57 1021.0
20260906093215 65 0.0 0.0 0.00 0.00 0.00 59 1021.1
20260906091716 65 0.0 0.0 0.00 0.00 0.00 61 1020.3
20260906090216 66 0.0 0.0 0.00 0.00 0.00 60 1020.4
20260906084715 66 0.0 0.0 0.00 0.00 0.00 61 1020.9
20260906083215 64 0.0 0.0 0.00 0.00 0.00 63 1020.8
20260906081715 64 0.0 0.0 0.00 0.00 0.00 65 1020.8
20260906080215 63 0.0 0.0 0.00 0.00 0.00 66 1020.5
20260906074716 63 0.0 0.0 0.00 0.00 0.00 68 1020.3
20260906073216 62 0.0 0.0 0.00 0.00 0.00 70 1019.9
20260906071716 61 0.0 0.0 0.00 0.00 0.00 72 1019.5
20260906070216 61 0.0 0.0 0.00 0.00 0.00 73 1019.4
20260906064716 60 0.0 0.0 0.00 0.00 0.00 75 1019.2
20260906063216 59 0.0 0.0 0.00 0.00 0.00 77 1019.2
20260906061717 58 0.0 0.0 0.00 0.00 0.00 79 1019.0
20260906060215 58 0.0 0.0 0.00 0.00 0.00 80 1018.9
20260906054716 57 0.0 0.0 0.00 0.00 0.00 82 1018.7
20260906053216 56 0.0 0.0 0.00 0.00 0.00 83 1018.9
20260906051716 56 0.0 0.0 0.00 0.00 0.00 84 1018.4
20260906050215 55 0.0 0.0 0.00 0.00 0.00 84 1018.4
20260906044715 55 0.0 0.0 0.00 0.00 0.00 84 1018.0
20260906043215 55 0.0 0.0 0.00 0.00 0.00 84 1018.3
20260906041716 55 0.0 0.0 0.00 0.00 0.00 84 1017.8
20260906040215 56 0.0 0.0 0.00 0.00 0.00 83 1017.6
20260906034715 56 0.0 0.0 0.00 0.00 0.00 83 1017.8
20260906033215 56 0.0 0.0 0.00 0.00 0.00 83 1017.6
20260906031715 56 0.0 0.0 0.00 0.00 0.00 83 1017.5
20260906030215 56 0.0 0.0 0.00 0.00 0.00 82 1017.2
20260906024715 56 0.0 0.0 0.00 0.00 0.00 82 1017.0
20260906023215 56 0.0 0.0 0.00 0.00 0.00 82 1017.6
20260906021717 57 0.0 0.0 0.00 0.00 0.00 82 1016.8
20260906020216 57 0.0 0.0 0.00 0.00 0.00 81 1016.8
20260906014716 57 0.0 0.0 0.00 0.00 0.00 81 1017.1
20260906013216 57 0.0 0.0 0.00 0.00 0.00 81 1016.8
20260906011716 57 0.0 0.0 0.00 0.00 0.00 81 1016.7
20260906010215 57 0.0 0.0 0.00 0.00 0.00 81 1016.1
20260906004716 57 0.0 0.0 0.00 0.00 0.00 80 1016.1
20260906003216 58 0.0 0.0 0.00 0.00 0.00 80 1016.2
20260906001715 58 0.0 0.0 0.00 0.00 0.00 79 1016.1
20260906000215 58 0.0 0.0 0.00 0.00 0.00 79 1015.9
20260905234716 58 0.0 0.0 0.00 0.00 0.00 78 1016.1
20260905233215 58 0.0 0.0 0.00 0.00 0.00 77 1016.3
20260905231715 59 0.0 0.0 0.00 0.00 0.00 75 1015.7
20260905230216 59 0.0 0.0 0.00 0.00 0.00 75 1015.8
20260905224715 59 0.0 0.0 0.00 0.00 0.00 74 1015.7
20260905223215 60 0.0 0.0 0.00 0.00 0.00 74 1015.8
20260905221716 60 0.0 0.0 0.00 0.00 0.00 74 1015.5
20260905220216 60 0.0 0.0 0.00 0.00 0.00 73 1015.6
20260905214716 60 0.0 0.0 0.00 0.00 0.00 73 1014.9
20260905213215 60 0.0 0.0 0.00 0.00 0.00 73 1015.4
20260905211716 60 0.0 0.0 0.00 0.00 0.00 72 1015.2
20260905210215 61 0.0 0.0 0.00 0.00 0.00 72 1014.8
20260905204716 61 0.0 0.0 0.00 0.00 0.00 71 1014.9
20260905203215 61 0.0 0.0 0.00 0.00 0.00 71 1014.6
20260905201716 61 0.0 0.0 0.00 0.00 0.00 70 1014.7
20260905200216 61 0.0 0.0 0.00 0.00 0.00 70 1014.4
20260905194715 61 0.0 0.0 0.00 0.00 0.00 70 1014.1
20260905193216 62 0.0 0.0 0.00 0.00 0.00 69 1014.2
20260905191716 62 0.0 0.0 0.00 0.00 0.00 68 1013.6
20260905190215 62 0.0 0.0 0.00 0.00 0.00 68 1013.7
20260905184716 62 0.0 0.0 0.00 0.00 0.00 68 1013.3
20260905183215 63 0.0 0.0 0.00 0.00 0.00 68 1013.1
20260905181716 63 0.0 0.0 0.00 0.00 0.00 70 1013.2
20260905180215 63 0.0 0.0 0.00 0.00 0.00 71 1013.0
20260905174716 63 0.0 0.0 0.00 0.00 0.00 70 1012.8
20260905173215 64 0.0 0.0 0.00 0.00 0.00 69 1012.7
20260905171716 63 0.0 0.0 0.00 0.00 0.00 71 1012.4
20260905170216 63 0.0 0.0 0.00 0.00 0.00 71 1011.8
20260905164716 64 0.0 0.0 0.00 0.00 0.00 71 1012.3
20260905163215 64 0.0 0.0 0.00 0.00 0.00 72 1013.7
20260905161715 64 0.0 0.0 0.00 0.00 0.00 71 1011.7
20260905160215 64 0.0 0.0 0.00 0.00 0.00 71 1011.7
20260905154715 63 0.0 0.0 0.00 0.00 0.00 74 1010.7
20260905153215 62 0.0 0.0 0.00 0.00 0.00 78 1011.8
20260905151716 60 0.0 0.0 0.00 0.00 0.00 80 1011.8
20260905150215 60 0.0 0.0 0.00 0.00 0.00 79 1010.8
20260905144716 62 0.0 0.0 0.00 0.00 0.00 77 1010.6
20260905143215 64 0.0 0.0 0.00 0.00 0.00 72 1007.9
20260905141716 69 0.0 0.0 0.00 0.00 0.00 63 1010.8
20260905140216 67 0.0 0.0 0.00 0.00 0.00 63 1009.6
20260905134715 68 0.0 0.0 0.00 0.00 0.00 61 1010.2
20260905133216 67 0.0 0.0 0.00 0.00 0.00 60 1008.0
20260905131715 70 0.0 0.0 0.00 0.00 0.00 56 1010.8
20260905130216 70 0.0 0.0 0.00 0.00 0.00 58 1008.6
20260905124715 70 0.0 0.0 0.00 0.00 0.00 58 1010.8
20260905123216 70 0.0 0.0 0.00 0.00 0.00 58 1010.8
20260905121715 68 0.0 0.0 0.00 0.00 0.00 59 1010.1
20260905120216 69 0.0 0.0 0.00 0.00 0.00 59 1009.8
20260905114716 69 0.0 0.0 0.00 0.00 0.00 59 1010.0
20260905113215 69 0.0 0.0 0.00 0.00 0.00 58 1009.7
20260905111716 70 0.0 0.0 0.00 0.00 0.00 57 1009.4
20260905110216 70 0.0 0.0 0.00 0.00 0.00 57 1009.9
20260905104715 69 0.0 0.0 0.00 0.00 0.00 60 1009.9
20260905103216 68 0.0 0.0 0.00 0.00 0.00 64 1010.5
20260905101715 66 0.0 0.0 0.00 0.00 0.00 62 1009.6
20260905100215 68 0.0 0.0 0.00 0.00 0.00 61 1009.8